Weather History for Alpena, MI

Change the Weather History Date:

Thursday, June 27, 2013

  Actual Average Record
Temperature  
Mean Temperature 69 °F 65 °F  
Max Temperature 78 °F 78 °F 99 °F (1933)
Min Temperature 60 °F 53 °F 33 °F (1925)
Degree Days  
Heating Degree Days 0 2  
Month to date heating degree days 136 136  
Since 1 June heating degree days 136 136  
Since 1 July heating degree days 7736 8093  
Cooling Degree Days 4 3  
Month to date cooling degree days 60 48  
Year to date cooling degree days 73 61  
Since 1 June cooling degree days 60 48  
Growing Degree Days 19 (Base 50)    
Moisture  
Dew Point 63 °F    
Average Humidity 84    
Maximum Humidity 100    
Minimum Humidity 68    
Precipitation  
Precipitation 0.09 in 0.09 in 1.05 in (2006)
Month to date precipitation 1.37 2.35  
Year to date precipitation 16.30 12.25  
Sea Level Pressure  
Sea Level Pressure 29.73 in    
Wind  
Wind Speed 2 mph (ESE)    
Max Wind Speed 14 mph    
Max Gust Speed 16 mph    
Visibility 10 miles    
Events Rain , Thunderstorm    
T = Trace of Precipitation, MM = Missing Value Source: NWS Daily Summary

Daily Weather History Graph

Daily Weather History Graph

Search for Another Location

Airport:

Trip Planner

Search our weather history database for the weather conditions in past years. The results will help you decide how hot, cold, wet, or windy it might be!

Date:

Astronomy

Jun. 27, 2013 Rise Set
Actual Time 5:49 AM EDT 9:25 PM EDT
Civil Twilight 5:11 AM EDT 10:02 PM EDT
Nautical Twilight 4:22 AM EDT 10:52 PM EDT
Astronomical Twilight 3:16 AM EDT 11:58 PM EDT
Moon No Moon Rise 11:03 AM EDT (6/27)
Length of Visible Light 16h 50m
Length of Day
15h 36m
Waning Gibbous, 76% of the Moon is Illuminated
Jun 27
Waning Gibbous
Jun 30
Last Quarter
Jul 8
New
Jul 15
First Quarter
Jul 22
Full

Hourly Weather History & Observations

Time (EDT) Temp. Dew Point Humidity Pressure Visibility Wind Dir Wind Speed Gust Speed Precip Events Conditions
12:54 AM 63.0 °F 61.0 °F 93% 29.77 in 10.0 mi Calm Calm - N/A   Clear
1:54 AM 66.0 °F 64.0 °F 93% 29.76 in 10.0 mi NW 5.8 mph - N/A   Partly Cloudy
2:54 AM 62.1 °F 61.0 °F 96% 29.77 in 10.0 mi South 3.5 mph - N/A   Clear
3:54 AM 62.1 °F 60.1 °F 93% 29.77 in 10.0 mi Calm Calm - N/A   Clear
4:54 AM 61.0 °F 60.1 °F 97% 29.75 in 10.0 mi Calm Calm - N/A   Clear
5:54 AM 62.1 °F 61.0 °F 96% 29.76 in 10.0 mi Calm Calm - N/A   Clear
6:54 AM 63.0 °F 62.1 °F 97% 29.76 in 10.0 mi Calm Calm - N/A   Clear
7:54 AM 66.0 °F 64.0 °F 93% 29.75 in 8.0 mi SSE 3.5 mph - N/A   Clear
8:54 AM 70.0 °F 66.0 °F 87% 29.75 in 10.0 mi Calm Calm - N/A   Partly Cloudy
9:54 AM 75.9 °F 66.0 °F 71% 29.74 in 10.0 mi SE 4.6 mph - N/A   Overcast
11:14 AM 75.2 °F 66.2 °F 73% 29.74 in 10.0 mi North 10.4 mph - N/A Thunderstorm Thunderstorm
11:32 AM 73.4 °F 66.2 °F 78% 29.75 in 10.0 mi NE 8.1 mph - N/A Thunderstorm Thunderstorm
11:54 AM 71.1 °F 63.0 °F 75% 29.74 in 10.0 mi NE 11.5 mph - 0.00 in Rain , Thunderstorm Light Thunderstorms and Rain
12:54 PM 68.0 °F 64.9 °F 90% 29.76 in 10.0 mi ESE 8.1 mph - 0.00 in Thunderstorm Thunderstorm
1:22 PM 68.0 °F 62.6 °F 83% 29.76 in 10.0 mi SE 6.9 mph - N/A   Mostly Cloudy
1:41 PM 68.0 °F 62.6 °F 83% 29.76 in 10.0 mi SE 8.1 mph - N/A Thunderstorm Thunderstorm
1:54 PM 69.1 °F 62.1 °F 78% 29.75 in 10.0 mi South 8.1 mph - N/A Thunderstorm Thunderstorm
2:12 PM 68.0 °F 60.8 °F 78% 29.75 in 10.0 mi South 3.5 mph - N/A   Mostly Cloudy
2:26 PM 68.0 °F 60.8 °F 78% 29.75 in 10.0 mi SSE 5.8 mph - N/A Thunderstorm Thunderstorm
2:54 PM 66.9 °F 60.1 °F 79% 29.75 in 9.0 mi SSE 8.1 mph - 0.00 in Rain Light Rain
3:54 PM 68.0 °F 64.0 °F 87% 29.73 in 10.0 mi NE 3.5 mph - 0.08 in Rain Light Rain
4:54 PM 71.1 °F 64.9 °F 81% 29.72 in 10.0 mi Calm Calm - 0.00 in   Mostly Cloudy
5:54 PM 73.0 °F 63.0 °F 71% 29.70 in 10.0 mi Calm Calm - N/A   Clear
6:54 PM 72.0 °F 64.0 °F 76% 29.70 in 10.0 mi ESE 3.5 mph - N/A   Partly Cloudy
7:54 PM 71.1 °F 64.9 °F 81% 29.70 in 10.0 mi Calm Calm - N/A   Partly Cloudy
8:54 PM 69.1 °F 64.0 °F 84% 29.70 in 10.0 mi Calm Calm - N/A   Overcast
9:17 PM 68.0 °F 64.4 °F 88% 29.71 in 10.0 mi East 3.5 mph - N/A   Overcast
9:36 PM 66.2 °F 62.6 °F 88% 29.70 in 10.0 mi Calm Calm - N/A   Mostly Cloudy
9:51 PM 66.2 °F 62.6 °F 88% 29.70 in 10.0 mi Calm Calm - N/A   Mostly Cloudy
9:54 PM 66.9 °F 63.0 °F 87% 29.69 in 10.0 mi Calm Calm - N/A   Overcast
10:27 PM 66.2 °F 62.6 °F 88% 29.70 in 10.0 mi Calm Calm - N/A Thunderstorm Thunderstorm
10:43 PM 66.2 °F 62.6 °F 88% 29.69 in 10.0 mi Calm Calm - N/A   Mostly Cloudy
10:54 PM 66.0 °F 62.1 °F 87% 29.68 in 10.0 mi Calm Calm - N/A   Mostly Cloudy
11:54 PM 64.0 °F 61.0 °F 90% 29.67 in 10.0 mi Calm Calm - 0.01 in Rain Light Rain